Wetbulb
57.37 57.65 57.65 57.78 57.87 58.03 57.99 58.21 58.43 58.72 59.06 59.44 59.89 59.74 59.94 60.38 59.21 60.37 55.54 58.60 60.85 65.27 64.62 58.63 58.34 56.97 56.89 54.94 54.98 53.86 49.93 47.76 47.67 48.28 49.66 52.87 51.83 54.35 54.74 53.47 54.35 55.26 55.13 56.54 58.48
57.19 57.57 57.62 57.79 57.85 57.92 57.78 57.96 58.27 58.74 59.27 59.56 59.64 59.53 60.13 60.08 58.11 55.91 62.05 65.49 67.01 66.39 57.46 56.60 55.19 56.02 54.76 54.07 54.97 54.19 52.82 48.13 50.80 51.61 50.93 51.80 52.03 52.37 52.31 52.31 52.84 53.94 56.19 57.46 58.64
56.77 57.07 57.33 57.50 57.75 57.75 57.79 58.02 58.32 58.78 59.44 59.31 59.31 59.88 60.09 61.33 54.86 55.18 65.08 67.28 67.23 65.30 58.45 57.57 56.80 55.31 52.57 53.96 53.15 52.60 49.71 50.75 50.96 51.94 52.34 51.21 51.02 52.68 51.57 50.70 52.29 52.05 54.01 55.83 56.94
56.31 56.64 56.92 57.07 57.41 57.65 57.83 57.92 58.10 58.55 58.80 58.84 59.28 59.86 60.39 59.25 47.36 56.89 66.35 66.54 64.94 61.33 57.61 56.27 55.19 52.77 51.35 50.43 52.81 50.08 51.35 51.61 51.91 52.41 51.89 50.84 51.68 50.33 51.51 52.26 53.43 53.95 54.90 55.34 55.81
55.65 55.90 56.28 56.60 56.90 57.28 57.58 57.57 57.82 57.82 57.74 58.24 59.62 60.20 61.91 54.08 53.60 59.49 66.17 66.21 59.07 58.13 56.15 54.81 53.20 52.60 49.90 50.68 51.62 50.22 50.72 51.65 52.16 51.86 51.90 52.25 50.24 50.59 51.05 53.07 54.18 54.52 55.38 55.26 55.80
54.98 55.18 55.62 56.19 56.53 56.88 57.15 56.93 56.93 57.12 57.49 58.43 59.86 59.88 57.25 49.97 58.75 60.01 59.28 58.51 58.29 57.24 55.91 55.95 53.50 54.17 51.61 50.82 50.71 51.36 50.97 50.89 51.64 51.49 51.80 50.26 50.10 50.86 52.04 53.44 53.64 54.22 54.73 55.54 55.93
55.01 54.81 55.21 55.80 56.25 56.79 56.89 56.61 56.28 56.82 58.16 59.33 60.72 61.68 55.08 53.02 60.49 60.56 59.04 58.10 58.42 57.27 55.63 55.91 55.91 53.24 53.12 50.76 52.98 51.47 49.18 50.27 50.70 50.93 50.23 51.29 48.97 49.13 52.49 53.13 52.79 53.65 54.99 55.34 56.16
55.15 54.78 54.66 55.36 56.01 56.81 57.13 56.85 56.51 57.41 58.64 59.83 60.59 60.11 53.51 60.90 61.81 59.70 59.18 57.52 58.16 57.98 57.24 57.47 57.25 54.91 53.03 53.40 51.15 48.60 49.17 46.19 50.06 50.32 50.18 50.11 45.17 50.12 52.76 52.38 52.11 53.35 53.94 54.50 55.91
55.09 54.74 54.54 54.95 55.74 56.47 56.22 56.00 56.74 57.65 58.69 59.76 60.43 58.69 53.48 61.39 57.15 58.54 58.84 55.51 56.39 56.71 56.72 56.11 56.11 53.09 53.13 50.08 48.39 48.44 44.65 44.91 46.17 50.29 49.49 48.72 46.34 50.32 52.77 52.47 51.85 52.90 53.34 53.54 55.93
54.66 54.41 54.54 54.72 55.38 55.78 55.31 55.88 57.83 58.43 60.71 60.59 58.97 55.83 56.05 54.11 57.60 57.88 58.22 56.71 54.83 55.18 54.55 53.96 54.76 51.57 52.11 49.29 43.43 44.04 44.55 45.64 45.48 48.88 49.34 47.72 47.29 49.71 51.43 50.97 50.95 51.52 52.09 53.04 55.33
53.99 54.13 54.39 54.82 55.17 55.00 56.56 60.43 57.43 55.97 57.38 53.68 53.48 52.85 53.79 56.80 58.80 56.86 57.41 55.97 55.22 53.67 49.87 52.17 49.21 48.07 48.33 49.20 48.80 47.69 46.43 45.50 48.06 49.99 47.39 47.23 47.25 48.91 50.65 50.55 49.87 50.59 51.84 53.87 55.29
53.33 53.68 54.01 54.58 54.70 55.05 59.80 58.06 56.65 57.84 53.90 55.43 54.98 54.51 55.69 56.71 52.88 55.01 56.97 52.71 51.85 49.05 50.29 49.58 47.26 49.79 49.93 49.41 48.11 47.75 46.36 46.14 48.19 48.40 48.07 47.24 46.72 49.10 49.59 49.55 50.11 50.66 51.44 53.97 55.63
53.29 53.19 53.74 54.15 54.23 59.74 59.59 57.75 60.55 59.23 54.91 53.71 55.07 54.75 54.95 56.30 52.44 53.07 55.57 53.09 50.46 48.63 48.74 46.88 48.53 49.72 48.45 48.11 47.00 47.40 45.82 45.80 44.69 47.15 48.54 47.04 44.77 45.84 47.93 49.68 50.63 51.89 53.59 54.66 55.17
53.39 53.46 53.41 53.39 56.50 61.51 58.63 60.63 60.53 60.03 51.26 49.87 51.70 52.14 53.69 54.85 51.59 56.13 55.86 52.60 50.65 47.65 48.27 47.87 49.95 48.04 47.92 47.02 47.41 44.33 47.80 45.98 44.97 44.22 40.30 46.56 37.81 44.48 46.63 47.26 49.63 50.85 52.70 54.49 55.65
53.46 53.35 53.06 51.80 60.86 59.26 59.53 60.93 61.16 60.29 42.57 51.34 50.33 56.10 54.73 51.51 52.65 53.15 56.28 52.71 48.26 48.28 47.91 46.35 47.51 47.27 46.28 46.63 47.77 45.53 47.62 46.35 45.43 43.73 42.95 42.81 39.73 43.95 46.22 45.50 47.80 49.84 52.86 54.61 56.02
53.46 53.29 52.92 59.70 63.60 59.08 60.50 61.39 61.27 51.63 41.35 47.33 50.36 49.61 50.42 51.42 51.21 52.85 52.34 54.51 52.94 49.17 49.42 48.12 50.50 48.72 47.83 48.25 47.87 48.15 46.59 46.59 46.32 43.29 37.56 42.14 40.70 40.75 44.01 45.51 46.92 50.59 52.26 53.80 55.07
52.93 52.83 58.27 60.20 58.55 60.50 61.38 59.41 50.25 44.55 49.05 45.92 46.99 49.51 49.06 47.97 48.62 49.54 48.81 48.65 47.04 43.32 43.93 46.52 46.52 49.12 49.60 46.69 48.37 47.00 45.06 38.40 36.56 37.26 36.97 42.50 39.65 42.39 46.75 48.02 48.88 49.40 51.01 52.98 54.75
51.63 51.45 54.35 59.41 62.41 61.66 60.70 53.97 43.70 45.15 46.00 48.97 48.46 48.48 46.53 48.00 48.06 48.18 47.83 46.30 48.49 46.97 44.21 41.47 39.87 45.66 48.81 46.62 44.22 45.02 43.95 38.07 29.95 33.35 36.41 42.44 37.44 43.25 47.94 49.84 51.18 51.61 52.65 53.34 52.99
50.48 63.23 61.25 59.39 60.88 62.21 56.59 46.74 46.08 46.64 47.95 47.09 48.41 45.78 45.67 46.99 46.88 47.14 47.18 45.33 47.09 47.80 41.96 41.39 41.05 47.67 48.30 48.88 47.43 44.27 40.79 45.59 38.95 39.91 36.46 40.05 43.25 46.87 48.75 48.36 49.55 50.41 51.78 52.42 52.86
63.86 61.73 57.52 59.35 61.51 62.02 54.39 45.01 48.13 49.99 49.70 48.91 44.73 46.23 43.37 45.20 45.04 45.88 45.38 47.54 46.24 48.58 49.88 45.21 38.95 45.41 45.83 48.08 48.53 46.06 47.28 39.42 40.21 30.16 30.36 37.40 38.95 39.68 45.09 45.66 47.71 48.84 49.83 51.69 53.06
62.64 57.51 57.11 59.49 60.94 57.37 50.92 48.42 48.56 50.79 50.66 47.99 46.05 45.15 45.54 44.85 45.48 44.76 44.25 46.89 48.05 47.49 49.06 47.08 43.14 42.00 45.59 43.93 43.19 43.69 42.08 42.81 42.29 40.04 33.06 31.99 37.22 46.55 46.09 47.96 47.65 49.31 50.71 50.40 51.82
59.60 54.15 56.82 59.61 53.80 54.25 49.93 48.45 46.44 49.19 50.60 48.87 49.48 47.75 46.09 45.90 44.56 43.85 43.37 45.59 49.59 48.76 44.43 47.21 43.96 39.18 41.43 46.56 47.53 45.90 43.54 43.59 38.93 35.68 39.10 37.53 37.09 48.44 49.03 47.76 49.38 49.72 50.77 50.63 52.83
54.10 53.12 56.25 58.29 49.25 48.24 48.58 47.70 48.45 47.59 47.50 47.43 46.77 47.82 48.01 45.41 42.52 44.34 45.16 48.30 49.15 47.58 45.38 46.72 41.76 35.57 38.50 43.45 44.97 42.47 43.67 43.38 43.03 42.44 36.37 33.56 36.48 48.32 47.76 47.00 48.81 49.35 48.50 50.95 51.80
53.70 49.30 51.01 52.44 52.26 48.11 46.04 45.43 45.11 48.33 47.14 47.75 46.91 47.50 45.82 44.47 46.34 43.62 44.07 46.09 47.98 48.10 48.53 48.00 43.16 39.81 35.70 39.59 43.10 40.06 41.82 43.37 41.82 36.28 36.85 37.71 39.81 44.11 44.94 45.43 48.02 48.95 48.31 48.65 50.15
50.52 46.79 46.64 45.49 46.64 47.15 47.29 45.93 43.21 42.77 47.09 47.15 45.88 44.86 43.51 41.30 42.35 42.06 43.95 44.68 46.25 48.00 46.93 46.75 40.62 42.71 42.62 42.54 42.20 41.41 41.23 41.74 40.40 40.97 35.50 38.74 38.91 41.38 44.59 46.53 46.40 46.18 46.88 47.46 48.47
49.42 48.26 49.69 48.37 46.42 45.73 44.15 44.61 42.78 42.77 43.86 43.39 44.03 44.86 44.53 41.18 42.16 40.60 43.03 44.06 43.59 46.11 45.08 46.41 39.54 41.73 39.30 42.24 41.89 39.52 41.10 41.42 41.06 40.93 40.36 40.32 39.67 44.60 46.77 48.12 44.86 44.66 46.19 47.16 47.50
51.95 52.01 48.83 42.35 45.16 44.55 45.02 42.94 42.44 44.11 45.29 45.87 44.74 43.13 42.33 44.04 46.33 47.22 47.87 47.34 46.54 44.12 43.34 43.10 41.98 39.67 35.41 40.28 39.52 35.83 39.36 39.80 39.92 41.41 40.71 36.01 41.84 45.66 45.20 43.29 43.52 45.32 47.03 47.12 47.16
MSLP
1017.47 1017.20 1016.98 1016.75 1016.51 1016.27 1016.03 1015.79 1015.57 1015.34 1015.10 1014.80 1014.50 1014.17 1013.77 1013.30 1012.67 1012.00 1011.59 1012.36 1011.89 1011.49 1011.42 1010.11 1009.44 1009.02 1008.42 1008.35 1008.43 1008.20 1006.76 1006.62 1007.57 1007.73 1008.45 1008.68 1008.32 1008.56 1008.88 1008.32 1008.60 1008.75 1009.14 1009.47 1009.56
1017.51 1017.21 1016.91 1016.66 1016.41 1016.20 1015.97 1015.71 1015.47 1015.25 1015.02 1014.69 1014.40 1014.05 1013.67 1013.10 1011.34 1011.63 1012.53 1012.23 1011.95 1011.40 1009.95 1009.11 1008.76 1008.42 1008.19 1008.18 1008.22 1007.14 1006.92 1008.13 1008.99 1009.14 1009.00 1008.99 1008.92 1008.97 1008.70 1008.70 1008.79 1009.01 1009.39 1009.67 1009.78
1017.52 1017.21 1016.89 1016.62 1016.34 1016.09 1015.88 1015.65 1015.42 1015.17 1014.91 1014.61 1014.28 1013.96 1013.51 1012.88 1011.16 1011.82 1012.40 1012.27 1011.81 1011.15 1010.06 1009.65 1009.00 1008.46 1008.23 1008.33 1008.73 1008.37 1008.22 1009.33 1009.79 1010.01 1010.00 1009.51 1009.21 1009.22 1008.99 1008.78 1009.39 1009.46 1009.51 1009.56 1009.65
1017.46 1017.09 1016.82 1016.56 1016.30 1016.05 1015.84 1015.64 1015.42 1015.15 1014.90 1014.57 1014.16 1013.70 1013.29 1012.16 1011.27 1012.15 1012.47 1012.26 1011.66 1010.51 1009.52 1009.38 1008.90 1008.53 1008.43 1008.62 1009.24 1009.06 1009.71 1009.87 1009.91 1010.37 1010.25 1009.71 1009.74 1009.42 1009.22 1009.34 1010.04 1010.14 1010.23 1009.86 1009.67
1017.53 1017.14 1016.81 1016.53 1016.25 1016.00 1015.80 1015.62 1015.41 1015.15 1014.85 1014.55 1014.13 1013.58 1012.89 1011.38 1011.64 1012.11 1012.36 1011.78 1010.98 1010.47 1009.90 1009.29 1009.00 1008.83 1008.72 1009.27 1009.42 1009.28 1009.95 1010.14 1010.32 1010.34 1010.31 1010.32 1009.87 1009.68 1009.52 1010.04 1010.31 1010.29 1010.21 1009.90 1009.94
1017.59 1017.20 1016.82 1016.51 1016.22 1015.97 1015.76 1015.57 1015.38 1015.14 1014.81 1014.48 1014.08 1013.62 1011.99 1011.39 1012.11 1012.00 1011.83 1011.42 1011.15 1010.62 1010.35 1009.93 1009.74 1009.66 1009.65 1009.79 1009.74 1010.39 1010.24 1010.18 1010.22 1010.20 1010.17 1010.14 1009.83 1010.12 1009.41 1010.15 1010.11 1010.12 1009.93 1009.91 1010.09
1017.59 1017.22 1016.82 1016.45 1016.17 1015.92 1015.71 1015.51 1015.32 1015.12 1014.84 1014.48 1014.05 1013.08 1011.50 1011.81 1012.09 1011.88 1011.75 1011.62 1011.68 1011.25 1010.51 1010.74 1010.47 1009.85 1010.10 1010.05 1010.69 1010.49 1009.87 1009.90 1010.11 1010.41 1010.16 1010.72 1009.62 1009.51 1009.66 1010.33 1010.02 1009.97 1009.92 1010.00 1010.24
1017.49 1017.16 1016.78 1016.42 1016.12 1015.85 1015.56 1015.32 1015.17 1014.98 1014.76 1014.45 1014.09 1012.84 1011.59 1012.08 1012.02 1011.75 1011.58 1011.49 1011.69 1011.53 1011.26 1011.18 1010.71 1010.51 1010.18 1010.70 1010.53 1010.02 1009.93 1009.09 1009.31 1010.51 1010.52 1010.82 1009.02 1008.57 1009.73 1010.08 1009.82 1009.68 1009.63 1009.78 1010.35
1017.41 1017.05 1016.67 1016.32 1016.02 1015.77 1015.45 1015.13 1014.87 1014.77 1014.62 1014.31 1013.67 1012.39 1011.54 1012.06 1011.77 1011.76 1011.63 1011.32 1011.50 1011.58 1011.61 1011.60 1010.92 1010.65 1010.53 1009.80 1009.33 1009.75 1009.12 1009.42 1009.51 1010.02 1010.57 1010.24 1009.17 1008.93 1009.18 1009.41 1009.23 1009.13 1009.07 1009.32 1010.40
1017.41 1016.99 1016.55 1016.20 1015.86 1015.52 1015.17 1014.96 1014.73 1014.64 1014.32 1013.65 1013.17 1012.39 1011.94 1011.64 1011.87 1011.95 1011.87 1011.83 1011.43 1011.23 1011.08 1010.81 1010.52 1010.01 1009.78 1009.46 1009.23 1009.85 1009.73 1009.67 1009.61 1009.82 1010.39 1009.89 1009.05 1008.64 1008.66 1008.61 1008.40 1008.54 1008.66 1009.23 1010.29
1017.24 1016.86 1016.43 1016.10 1015.80 1015.48 1014.97 1014.44 1014.27 1013.62 1012.87 1012.41 1012.16 1011.94 1011.84 1012.06 1012.20 1011.69 1011.80 1011.65 1011.48 1011.24 1010.49 1010.77 1010.17 1009.43 1010.17 1010.60 1010.81 1010.78 1010.48 1010.13 1009.94 1010.37 1010.73 1009.80 1009.17 1008.53 1008.16 1007.89 1007.70 1007.99 1008.45 1009.54 1010.21
1016.99 1016.56 1016.18 1015.88 1015.63 1015.30 1014.87 1013.22 1013.58 1013.57 1012.45 1012.55 1012.36 1012.20 1012.24 1012.23 1011.69 1011.66 1012.02 1011.66 1011.40 1010.74 1010.93 1010.64 1009.47 1010.03 1010.66 1010.96 1011.11 1010.93 1010.58 1010.16 1010.27 1010.63 1010.75 1009.78 1008.76 1008.16 1007.84 1007.64 1007.87 1008.43 1008.60 1009.41 1010.13
1016.72 1016.26 1015.89 1015.57 1015.26 1014.86 1013.70 1013.82 1013.69 1013.48 1011.89 1012.13 1012.09 1011.65 1011.90 1011.99 1011.86 1011.90 1011.91 1011.66 1011.26 1010.80 1010.53 1010.53 1010.08 1010.91 1011.08 1010.87 1010.93 1010.67 1010.64 1010.87 1011.03 1011.09 1010.61 1009.30 1007.92 1006.71 1007.56 1007.99 1008.12 1008.43 1008.94 1009.39 1009.76
1016.39 1015.95 1015.62 1015.27 1015.24 1013.88 1013.50 1013.89 1013.58 1013.53 1011.60 1011.86 1011.52 1011.92 1011.98 1011.89 1012.11 1012.55 1012.50 1012.31 1011.37 1011.10 1011.00 1010.64 1010.89 1011.12 1011.04 1010.88 1011.39 1010.96 1011.29 1011.87 1011.78 1011.31 1009.88 1009.65 1007.63 1006.83 1007.04 1007.56 1007.82 1007.98 1008.50 1009.00 1009.59
1016.19 1015.74 1015.45 1015.18 1013.81 1013.30 1013.95 1013.69 1013.48 1013.47 1011.25 1011.90 1011.68 1012.00 1011.88 1011.88 1012.27 1012.60 1013.03 1012.21 1011.78 1011.60 1012.04 1010.73 1011.20 1011.27 1011.14 1011.29 1012.12 1011.87 1012.51 1012.36 1012.03 1011.45 1010.50 1009.16 1008.90 1006.45 1007.44 1007.52 1007.38 1007.53 1008.21 1008.69 1009.10
1016.20 1015.77 1015.49 1014.53 1013.64 1014.03 1013.93 1013.82 1013.51 1012.36 1011.11 1011.69 1011.74 1011.74 1011.59 1012.16 1012.63 1012.87 1013.00 1013.01 1013.00 1012.25 1012.07 1011.62 1012.07 1012.16 1011.86 1012.60 1012.84 1013.04 1012.56 1011.90 1011.37 1011.28 1009.86 1008.03 1008.57 1006.85 1006.21 1006.71 1007.13 1007.54 1007.96 1008.38 1008.86
1016.47 1016.10 1015.29 1014.53 1013.88 1014.09 1013.89 1013.20 1012.18 1011.07 1012.21 1012.03 1011.92 1012.15 1012.32 1012.52 1012.78 1013.18 1013.14 1013.02 1012.81 1012.44 1011.64 1012.12 1011.91 1012.54 1012.90 1012.49 1012.46 1012.64 1012.44 1011.89 1010.74 1010.23 1009.18 1009.17 1008.99 1007.35 1006.94 1007.12 1007.24 1007.40 1007.67 1008.10 1008.54
1016.63 1016.24 1015.70 1014.82 1014.56 1014.29 1013.46 1012.47 1011.72 1012.29 1012.24 1012.89 1012.79 1012.79 1012.60 1013.28 1013.21 1013.43 1013.39 1013.18 1014.02 1013.79 1013.35 1012.68 1012.04 1012.66 1013.17 1012.85 1013.07 1013.02 1013.33 1013.03 1012.19 1010.73 1009.54 1009.43 1007.51 1006.53 1007.45 1007.72 1007.86 1007.93 1008.13 1008.41 1008.60
1016.45 1015.35 1014.48 1014.70 1014.74 1014.22 1013.02 1011.80 1012.29 1012.91 1013.38 1013.26 1012.98 1012.81 1013.00 1013.65 1014.08 1013.74 1013.33 1013.83 1014.27 1014.62 1014.57 1013.92 1012.96 1013.28 1013.32 1013.28 1013.68 1012.86 1013.65 1013.95 1013.81 1012.99 1011.09 1008.59 1006.68 1006.80 1007.07 1007.47 1007.52 1007.83 1008.10 1008.26 1008.28
1015.56 1014.75 1014.51 1014.76 1014.69 1013.76 1012.37 1013.03 1013.63 1014.11 1014.09 1013.87 1013.33 1013.65 1013.31 1013.50 1014.06 1013.91 1013.62 1014.29 1014.61 1015.23 1015.58 1015.09 1014.66 1013.80 1013.67 1013.89 1013.42 1013.70 1013.84 1014.27 1014.65 1013.55 1010.75 1007.76 1007.00 1006.09 1006.59 1007.07 1007.53 1008.18 1008.28 1008.43 1008.72
1015.75 1014.19 1014.76 1014.74 1014.33 1012.95 1012.55 1013.83 1014.36 1014.85 1014.92 1014.53 1014.10 1014.12 1014.18 1014.45 1014.69 1014.44 1014.26 1014.52 1015.27 1015.43 1016.05 1015.85 1016.02 1014.36 1013.98 1013.28 1012.65 1013.17 1013.63 1014.03 1014.37 1013.58 1011.89 1009.66 1007.04 1006.83 1007.51 1007.75 1007.83 1008.12 1008.84 1009.40 1009.28
1015.67 1013.93 1015.06 1014.62 1013.57 1013.91 1013.91 1015.18 1015.94 1015.35 1015.32 1015.14 1015.07 1015.04 1015.08 1015.18 1015.10 1014.97 1014.77 1015.06 1015.88 1016.11 1016.12 1016.25 1016.06 1014.53 1013.67 1013.00 1012.83 1013.31 1013.41 1013.51 1013.55 1012.96 1011.87 1010.81 1008.03 1009.08 1008.29 1008.93 1009.82 1008.94 1010.12 1009.99 1009.77
1016.11 1015.51 1015.13 1014.30 1013.99 1014.56 1015.59 1015.86 1016.20 1015.98 1016.14 1015.93 1015.80 1016.06 1016.16 1015.96 1016.04 1015.64 1015.43 1015.86 1016.40 1016.59 1016.46 1016.84 1016.71 1015.56 1013.10 1012.66 1013.31 1013.11 1013.02 1013.46 1013.55 1013.27 1011.98 1011.60 1008.79 1009.21 1008.84 1009.84 1009.42 1009.29 1009.78 1010.15 1010.14
1016.85 1015.67 1015.92 1016.08 1016.81 1016.36 1016.33 1016.48 1016.46 1016.97 1017.00 1016.96 1016.86 1017.01 1016.82 1016.52 1016.48 1016.04 1015.78 1015.96 1016.75 1017.03 1017.51 1017.79 1016.75 1016.03 1014.63 1013.40 1013.57 1013.09 1013.04 1013.03 1012.94 1012.64 1012.11 1011.01 1009.74 1009.26 1009.35 1009.39 1009.93 1009.77 1010.72 1011.13 1010.56
1018.04 1018.39 1018.85 1017.04 1017.18 1017.45 1017.36 1017.34 1017.09 1017.18 1017.39 1017.38 1017.28 1017.61 1017.73 1017.27 1016.79 1016.22 1016.29 1016.37 1016.60 1016.78 1017.29 1017.42 1016.46 1015.73 1014.75 1014.11 1013.86 1013.02 1012.34 1012.12 1012.16 1011.79 1011.38 1011.05 1010.27 1010.07 1009.86 1010.31 1011.05 1011.59 1011.58 1011.16 1010.24
1019.28 1019.52 1019.27 1018.59 1018.61 1017.94 1018.08 1017.82 1017.71 1017.88 1018.12 1017.63 1017.73 1017.97 1018.31 1018.08 1017.80 1017.03 1016.96 1016.92 1016.77 1016.93 1017.21 1017.46 1016.67 1015.93 1014.75 1013.97 1013.10 1012.25 1012.16 1011.80 1011.88 1011.79 1011.73 1011.52 1010.72 1010.55 1010.46 1010.48 1011.59 1011.87 1011.39 1010.21 1009.64
1021.51 1021.47 1020.48 1019.24 1018.66 1018.20 1018.20 1018.40 1018.29 1018.70 1018.53 1018.61 1018.61 1018.57 1018.32 1018.15 1018.26 1017.74 1017.56 1017.60 1017.57 1017.58 1017.58 1017.60 1016.72 1015.99 1014.58 1013.87 1013.20 1012.23 1011.93 1012.26 1012.50 1012.84 1012.78 1012.55 1011.68 1011.31 1011.46 1012.14 1012.29 1011.76 1011.01 1010.10 1009.20
Wind_Speed
10 10 10 9 9 10 10 10 10 10 10 11 10 11 11 11 8 3 14 7 9 12 8 2 6 5 4 7 3 3 5 6 5 5 5 4 4 7 2 4 9 7 7 6 7
11 10 10 10 10 9 10 9 10 10 10 10 10 11 11 11 8 16 4 8 8 10 6 1 6 4 6 4 3 3 2 6 4 5 3 3 5 4 2 3 7 7 10 8 6
11 10 10 10 10 10 9 9 9 9 9 10 10 10 11 10 5 13 5 8 10 10 6 1 4 4 5 6 4 6 7 5 5 4 4 4 5 3 3 4 5 6 7 7 6
13 12 11 11 10 10 10 10 10 10 10 11 11 11 10 9 4 7 7 7 7 9 6 8 3 3 3 7 4 8 4 2 3 2 3 4 3 2 3 6 4 3 4 5 6
13 13 12 11 10 10 10 10 10 11 10 10 12 13 6 6 10 5 7 3 5 8 11 8 5 4 4 5 5 4 4 3 4 3 1 3 1 6 6 1 1 2 5 6 7
14 13 12 11 11 10 10 10 10 10 10 11 12 13 5 12 3 4 7 3 8 8 10 9 7 7 5 4 4 3 1 4 3 4 2 7 3 6 4 2 6 6 8 8 8
13 13 12 11 11 10 10 10 10 9 10 10 11 6 3 9 2 5 3 5 4 7 11 7 4 2 1 6 2 1 9 7 3 2 3 5 12 12 2 5 8 9 10 9 10
14 13 12 11 11 10 11 11 9 8 8 9 9 5 7 3 5 4 1 5 3 5 6 5 3 6 4 2 5 3 6 6 6 3 7 7 13 4 4 7 10 13 12 8 10
15 14 13 12 11 10 10 9 6 4 5 7 6 6 8 4 3 3 4 3 2 1 3 2 2 4 5 4 7 3 7 6 6 2 6 7 12 10 10 11 15 15 14 6 7
15 14 13 13 11 11 9 3 4 5 5 4 2 6 6 5 2 3 1 4 3 4 7 3 2 6 4 6 7 9 10 8 10 6 10 15 16 14 15 15 17 16 14 5 6
17 14 12 12 10 9 4 5 7 7 5 5 4 3 3 2 3 2 2 4 4 5 7 1 11 4 6 4 7 9 11 12 11 12 11 15 17 17 18 18 14 9 4 5 6
18 15 13 11 10 7 7 2 5 6 3 1 1 2 1 2 3 5 2 5 4 8 3 9 7 2 4 6 8 11 13 13 12 5 13 18 22 19 14 12 8 6 5 7 6
15 14 12 11 10 5 7 6 5 3 3 6 4 4 4 4 3 5 7 4 7 8 6 9 13 2 6 10 10 14 11 13 15 16 18 19 20 9 6 7 6 6 4 5 6
15 11 9 9 1 3 4 4 5 4 7 8 5 5 1 1 4 7 6 5 7 9 9 9 5 5 9 13 6 14 9 7 13 16 16 15 13 15 6 7 10 9 7 8 8
15 8 6 4 5 2 5 6 2 5 6 5 6 2 2 2 4 5 3 5 9 10 5 3 7 9 11 6 3 12 6 14 16 17 19 18 9 5 6 11 11 6 9 9 8
16 7 5 2 2 5 6 2 5 7 3 6 3 1 4 2 3 6 5 3 3 6 4 6 3 7 5 0 3 8 14 16 11 9 11 4 7 10 6 6 6 7 7 7 7
16 9 5 3 4 7 4 5 7 6 3 4 1 1 1 3 0 5 6 5 6 6 4 10 3 3 3 7 6 6 11 6 6 7 11 4 9 15 14 11 11 10 8 7 7
16 9 3 6 5 6 5 6 6 3 2 3 2 2 4 5 2 7 8 4 2 7 9 7 3 1 3 9 13 13 8 5 7 9 16 18 12 5 4 4 6 6 7 6 9
13 2 3 9 6 5 6 5 4 2 2 3 4 5 4 1 6 6 6 4 3 4 6 8 4 3 12 14 7 2 7 7 9 16 14 12 13 13 15 12 10 13 8 11 13
3 2 6 12 5 5 5 4 3 3 4 3 4 2 5 5 6 6 5 4 3 2 2 4 10 11 5 8 12 10 6 6 4 6 14 13 21 16 6 3 7 11 11 13 9
3 4 8 10 5 4 2 5 4 5 5 4 3 5 4 7 5 8 4 2 1 2 4 8 4 6 9 9 14 7 11 11 10 11 15 19 11 14 15 17 16 10 11 17 16
3 2 9 7 2 1 4 3 1 3 3 1 3 4 4 3 7 6 5 2 2 4 11 6 7 15 20 19 13 11 15 16 11 18 17 16 22 19 19 17 28 17 18 17 15
3 3 6 8 2 4 3 3 3 3 4 3 0 2 1 5 4 5 7 2 3 9 3 5 5 8 9 8 5 7 8 11 18 19 23 20 19 17 19 14 18 12 8 14 18
3 1 4 6 3 4 2 3 1 3 2 3 3 2 4 5 4 8 10 5 1 7 9 8 11 14 14 19 19 21 22 21 21 12 20 22 29 26 24 19 16 17 17 17 20
5 4 4 4 6 4 3 1 2 3 1 2 3 2 4 5 11 14 7 10 11 3 3 5 13 16 18 20 21 24 23 21 22 24 22 23 25 20 17 15 15 12 16 20 22
4 4 3 3 1 4 1 2 3 3 3 1 4 0 7 11 13 18 16 12 9 5 3 10 12 14 20 20 19 19 22 24 15 16 18 21 24 18 20 16 15 17 21 23 25
3 2 5 3 1 4 3 3 3 4 3 4 5 10 12 8 10 14 13 14 16 17 16 13 10 10 15 16 20 19 7 14 18 15 13 12 21 23 19 17 19 22 24 26 23
Wind_Direction
360 355 350 348 345 342 339 335 332 329 325 319 322 323 323 315 297 139 50 357 321 318 291 194 168 125 113 90 58 253 220 138 113 193 99 55 349 52 51 50 59 61 41 17 9
358 353 348 347 343 341 338 335 332 327 321 319 323 322 320 312 93 62 8 310 302 308 1 319 96 164 93 79 43 321 104 73 57 70 22 356 331 3 292 104 91 82 74 69 64
356 354 350 349 346 344 340 335 331 325 322 321 320 318 314 302 90 51 4 319 307 299 6 111 110 85 88 62 31 22 81 118 111 35 338 330 271 327 267 151 63 50 37 36 42
355 353 351 350 347 346 342 337 331 326 326 325 323 322 315 249 68 55 346 297 284 299 43 150 197 130 63 82 90 114 80 26 67 94 270 261 26 214 292 67 51 20 3 336 353
355 351 349 347 346 343 339 336 331 325 325 325 325 322 270 112 88 42 294 235 26 34 36 51 69 73 67 104 97 51 84 101 105 122 192 184 103 320 207 84 267 285 251 323 334
355 351 347 344 342 338 333 332 331 326 322 321 322 311 245 93 47 358 352 17 28 33 44 40 55 61 91 98 351 46 74 136 97 62 141 252 275 239 206 228 263 268 302 312 319
354 351 346 342 336 329 324 322 320 317 314 318 328 315 75 83 9 336 332 21 16 6 48 48 33 343 225 145 91 189 239 185 160 1 132 302 250 227 87 275 268 265 281 289 299
351 347 344 338 331 325 319 313 305 300 301 309 314 278 91 112 325 240 242 123 81 46 51 47 60 84 359 96 182 275 246 289 89 305 122 287 279 228 89 259 272 277 275 277 287
347 342 339 334 329 322 313 302 266 249 256 281 255 272 124 143 195 42 313 357 24 103 76 145 263 23 196 246 192 150 332 313 316 126 308 275 303 285 287 280 279 278 274 274 276
344 338 333 329 328 324 318 278 130 181 208 252 268 224 169 90 26 332 17 284 294 281 220 246 235 229 181 332 2 328 316 308 302 347 316 290 282 293 292 279 277 281 279 267 244
340 334 328 324 323 316 267 199 202 182 208 344 64 348 96 33 227 107 350 268 269 255 291 75 286 324 351 319 322 308 297 290 297 330 294 293 293 290 295 295 287 284 280 213 243
335 330 325 319 314 299 263 48 38 3 161 83 22 249 299 299 179 56 288 259 260 287 262 235 257 349 300 282 276 293 289 287 310 274 308 299 295 290 281 279 303 287 241 217 208
331 325 320 314 309 260 78 51 323 233 232 110 91 83 69 219 62 45 341 333 287 285 265 288 306 8 267 275 270 288 285 298 312 310 285 290 285 273 215 262 247 222 274 241 235
337 327 315 311 202 139 89 351 297 229 213 141 156 92 147 219 138 23 12 318 255 306 329 282 27 284 276 283 295 293 16 303 287 293 295 320 292 284 208 246 223 259 236 218 207
346 340 317 298 106 187 15 334 175 228 219 112 106 55 101 272 356 68 27 294 296 313 268 12 306 306 288 345 316 307 326 295 291 287 288 271 237 110 181 258 249 263 219 228 225
354 356 315 202 111 54 327 272 227 226 164 136 123 180 219 65 83 353 357 318 305 283 254 298 315 277 336 55 302 319 283 284 281 267 256 277 242 283 294 297 266 225 236 230 243
347 341 321 302 32 334 306 212 223 270 134 130 124 331 25 6 116 352 345 14 0 318 322 313 171 145 265 270 271 258 302 307 274 213 272 106 260 259 287 275 264 262 267 251 259
334 307 51 43 334 322 240 221 248 63 44 87 318 237 270 344 124 324 312 320 111 335 306 338 239 105 137 305 315 290 294 261 289 304 307 304 266 13 356 300 269 258 262 261 289
317 173 57 359 327 286 246 238 39 48 23 335 267 259 157 197 313 316 332 317 1 354 342 313 257 257 274 297 266 93 247 2 302 276 268 265 259 212 232 262 264 261 253 273 284
256 248 42 341 321 257 247 60 108 51 333 268 286 293 299 1 300 333 318 115 332 249 332 323 293 285 340 279 238 254 352 241 205 275 285 284 311 298 313 279 266 300 294 329 309
241 230 28 344 267 242 9 64 102 58 353 309 310 285 293 315 296 316 291 323 292 186 288 297 291 276 263 247 284 228 222 221 290 276 272 289 279 345 327 302 294 284 344 310 313
305 233 10 324 238 18 58 23 299 1 12 326 281 295 285 310 296 293 284 273 92 315 304 359 287 284 288 288 299 293 281 286 263 275 268 267 273 295 305 4 334 333 332 311 322
17 9 24 306 28 75 103 114 42 10 31 360 290 324 339 295 299 268 288 27 296 283 320 360 288 306 293 155 183 233 269 262 270 280 275 272 278 298 300 225 283 295 314 324 315
303 288 73 52 50 353 18 55 41 62 97 342 329 286 285 276 252 282 286 308 319 286 342 286 254 249 271 293 305 296 292 287 282 271 275 273 288 300 308 312 315 338 336 314 307
357 63 8 18 68 26 317 326 338 13 344 306 179 46 358 289 301 276 290 300 300 324 227 285 274 278 280 292 294 285 288 292 291 292 287 293 291 299 323 337 334 328 313 301 300
1 328 165 101 286 300 120 46 332 359 282 129 272 286 296 284 285 292 301 293 281 271 274 300 282 293 286 283 286 299 290 286 304 316 309 301 303 308 319 325 328 308 299 304 307
43 112 287 118 165 277 59 348 323 338 137 286 312 306 295 320 318 293 287 281 275 280 288 280 277 304 287 307 309 289 330 312 312 306 313 302 305 316 330 324 308 315 307 302 304